Location: Pl�tzky
(52.0521°N, 11.8020°E)
Time: 15:10:07
(UTC+00:00)

USA 229 - Pass Details

Date: 25 February 2020
Orbit: 986 x 1226 km, 63.4° (Epoch: 26 March)

Event Time Altitude Azimuth Distance (km) Brightness Sun altitude
Rises 20:39:58 0° 284° (WNW) 3,806 7.5 -35.4°
Reaches altitude 10° 20:42:52 10° 294° (WNW) 2,887 6.7 -35.7°
Maximum altitude 20:48:58 33° 357° (N) 1,768 5.0 -36.5°
Enters shadow 20:50:17 31° 18° (NNE) 1,851 5.0 -36.6°
